SIA531 WSSS-KJFK

Flight info

Callsign SIA531
Flight time N/A
Altitude 32000
Route TOMAN3A TOMAN L625 AKMON/K0956F320 L625 ANOKI/N0514F320 L625 ABVAR/N0500F350 L625 MEVIN B462 KAZIK Y59 AZAMA Y57 POROT/N0487F370 Y57 PUTER A590 POOFF/N0485F390 A590 HAMND DCT TED J511 GKN J124 ORT DCT 63N140W 63N130W/N0490F410 62N120W 59N110W 5530N10000W DCT MISAX DCT SSM DCT SIKBO DCT AHPAH Q140 MEMMS PUCKY1
Aircraft A359/H-SDE2E3GHIJ3J4J5LM1ORWXY/LB1D1

Departure

Time N/A
Airport Singapore Changi Airport (WSSS)

Arrival

Time 2026-05-06 13:38
Airport John F. Kennedy International Airport (KJFK)
Time Latitude Longitude Altitude Speed Heading
2026-05-06 12:57 42.51151 -76.29316 40824 ft 560 kts 128°
2026-05-06 12:58 42.46996 -76.20130 40824 ft 560 kts 128°
2026-05-06 12:58 42.42940 -76.11184 40812 ft 559 kts 127°
2026-05-06 12:59 42.38864 -76.02222 40814 ft 559 kts 128°
2026-05-06 12:59 42.34763 -75.93243 40805 ft 559 kts 128°
2026-05-06 13:00 42.30661 -75.84280 40811 ft 561 kts 128°
2026-05-06 13:00 42.26554 -75.75328 40818 ft 561 kts 127°
2026-05-06 13:01 42.22461 -75.66434 40796 ft 559 kts 127°
2026-05-06 13:01 42.18343 -75.57518 40820 ft 559 kts 127°
2026-05-06 13:02 42.14215 -75.48604 40824 ft 559 kts 128°
2026-05-06 13:02 42.10097 -75.39737 40814 ft 560 kts 127°
2026-05-06 13:03 42.06548 -75.30441 40818 ft 567 kts 110°
2026-05-06 13:03 42.05076 -75.19918 40828 ft 572 kts 98°
2026-05-06 13:04 42.04019 -75.09367 40833 ft 573 kts 98°
2026-05-06 13:04 42.02914 -74.98716 40841 ft 573 kts 99°
2026-05-06 13:05 42.01791 -74.88048 40847 ft 579 kts 99°
2026-05-06 13:05 42.00653 -74.77331 40847 ft 581 kts 99°
2026-05-06 13:06 41.99498 -74.66607 40843 ft 581 kts 99°
2026-05-06 13:06 41.98326 -74.55850 40844 ft 581 kts 99°
2026-05-06 13:07 41.96067 -74.45505 40838 ft 571 kts 122°
2026-05-06 13:07 41.91629 -74.36832 40836 ft 565 kts 133°
2026-05-06 13:08 41.86806 -74.28469 40838 ft 566 kts 133°
2026-05-06 13:08 41.82038 -74.20162 40844 ft 565 kts 133°
2026-05-06 13:09 41.77211 -74.11808 40832 ft 563 kts 135°
2026-05-06 13:09 41.74518 -74.08061 40853 ft 554 kts 146°
2026-05-06 13:09 41.71923 -74.05487 40844 ft 542 kts 156°
2026-05-06 13:09 41.68604 -74.03260 40837 ft 527 kts 168°
2026-05-06 13:10 41.65143 -74.01915 40835 ft 505 kts 179°
2026-05-06 13:10 41.61759 -74.01417 40833 ft 487 kts 189°
2026-05-06 13:10 41.58434 -74.01664 40684 ft 471 kts 198°
2026-05-06 13:10 41.55286 -74.02575 40010 ft 457 kts 208°
2026-05-06 13:11 41.52357 -74.04109 39251 ft 447 kts 216°
2026-05-06 13:11 41.49490 -74.05753 38539 ft 453 kts 212°
2026-05-06 13:11 41.46509 -74.06937 37900 ft 464 kts 204°
2026-05-06 13:11 41.43221 -74.07626 37312 ft 468 kts 198°
2026-05-06 13:12 41.39997 -74.08140 36718 ft 464 kts 198°
2026-05-06 13:12 41.36871 -74.08931 36044 ft 451 kts 206°
2026-05-06 13:12 41.33994 -74.10394 35370 ft 435 kts 216°
2026-05-06 13:12 41.31404 -74.12397 34704 ft 427 kts 220°
2026-05-06 13:13 41.28909 -74.14534 33943 ft 427 kts 221°
2026-05-06 13:13 41.26413 -74.16688 33151 ft 428 kts 220°
2026-05-06 13:13 41.23918 -74.18830 32374 ft 428 kts 220°
2026-05-06 13:13 41.21412 -74.20973 31590 ft 428 kts 219°
2026-05-06 13:14 41.19753 -74.22389 31050 ft 429 kts 219°
2026-05-06 13:14 41.16413 -74.25236 29943 ft 431 kts 219°
2026-05-06 13:14 41.13881 -74.27390 28964 ft 433 kts 218°
2026-05-06 13:14 41.12168 -74.28846 28459 ft 431 kts 218°
2026-05-06 13:15 41.08894 -74.31618 27657 ft 424 kts 218°
2026-05-06 13:15 41.07214 -74.32941 27252 ft 424 kts 214°
2026-05-06 13:15 41.04429 -74.34293 26629 ft 432 kts 199°
2026-05-06 13:15 41.01391 -74.34531 25981 ft 446 kts 182°
2026-05-06 13:16 40.98333 -74.33584 25271 ft 461 kts 166°
2026-05-06 13:16 40.95486 -74.31478 24533 ft 475 kts 149°
2026-05-06 13:16 40.92980 -74.28588 24022 ft 476 kts 145°
2026-05-06 13:16 40.90608 -74.25423 23884 ft 491 kts 137°
2026-05-06 13:17 40.88376 -74.21979 23450 ft 494 kts 135°
2026-05-06 13:17 40.86214 -74.18492 22918 ft 486 kts 134°
2026-05-06 13:17 40.84121 -74.15058 22369 ft 470 kts 134°
2026-05-06 13:17 40.82160 -74.11816 21857 ft 444 kts 134°
2026-05-06 13:18 40.80292 -74.08721 21368 ft 421 kts 134°
2026-05-06 13:18 40.78497 -74.05752 20801 ft 402 kts 135°
2026-05-06 13:18 40.76782 -74.02918 20219 ft 387 kts 135°
2026-05-06 13:18 40.75121 -74.00179 19586 ft 375 kts 135°
2026-05-06 13:19 40.73529 -73.97504 18990 ft 367 kts 134°
2026-05-06 13:19 40.72010 -73.94888 18402 ft 361 kts 134°
2026-05-06 13:19 40.70504 -73.92289 17805 ft 352 kts 134°
2026-05-06 13:19 40.69038 -73.89752 17227 ft 342 kts 135°
2026-05-06 13:20 40.67615 -73.87303 16660 ft 331 kts 135°
2026-05-06 13:20 40.66244 -73.84933 16090 ft 321 kts 134°
2026-05-06 13:20 40.64998 -73.82531 15557 ft 313 kts 131°
2026-05-06 13:20 40.63823 -73.80159 15005 ft 305 kts 131°
2026-05-06 13:21 40.62671 -73.77853 14495 ft 299 kts 132°
2026-05-06 13:21 40.61543 -73.75617 13969 ft 295 kts 133°
2026-05-06 13:21 40.60391 -73.73350 13435 ft 292 kts 133°
2026-05-06 13:21 40.59360 -73.71327 12990 ft 291 kts 133°
2026-05-06 13:22 40.58360 -73.69373 12600 ft 293 kts 133°
2026-05-06 13:22 40.57234 -73.67175 12141 ft 293 kts 132°
2026-05-06 13:22 40.56133 -73.65017 11700 ft 294 kts 132°
2026-05-06 13:22 40.55266 -73.62897 11308 ft 303 kts 118°
2026-05-06 13:23 40.54945 -73.60638 10944 ft 316 kts 96°
2026-05-06 13:23 40.55255 -73.58408 10586 ft 326 kts 72°
2026-05-06 13:23 40.56492 -73.55991 10152 ft 330 kts 42°
2026-05-06 13:23 40.58420 -73.54410 9718 ft 327 kts 23°
2026-05-06 13:24 40.60267 -73.52930 9297 ft 326 kts 34°
2026-05-06 13:24 40.62165 -73.51341 8931 ft 321 kts 28°
2026-05-06 13:24 40.64102 -73.49895 8572 ft 317 kts 27°
2026-05-06 13:24 40.66017 -73.48491 8220 ft 313 kts 27°
2026-05-06 13:25 40.67916 -73.47109 7888 ft 310 kts 27°
2026-05-06 13:25 40.69792 -73.45743 7584 ft 305 kts 27°
2026-05-06 13:25 40.71633 -73.44405 7286 ft 301 kts 27°
2026-05-06 13:25 40.73441 -73.43096 6988 ft 297 kts 27°
2026-05-06 13:26 40.75248 -73.41789 6687 ft 293 kts 27°
2026-05-06 13:26 40.77026 -73.40510 6407 ft 289 kts 27°
2026-05-06 13:26 40.78780 -73.39253 6133 ft 286 kts 27°
2026-05-06 13:26 40.80516 -73.38033 5826 ft 282 kts 23°
2026-05-06 13:27 40.82390 -73.37463 5512 ft 270 kts 353°
2026-05-06 13:27 40.84114 -73.38022 5226 ft 247 kts 321°
2026-05-06 13:27 40.85414 -73.39361 5008 ft 228 kts 307°
2026-05-06 13:27 40.86566 -73.40720 4788 ft 218 kts 307°
2026-05-06 13:28 40.87677 -73.42017 4558 ft 208 kts 307°
2026-05-06 13:28 40.88544 -73.43441 4338 ft 192 kts 287°
2026-05-06 13:28 40.88910 -73.45053 4219 ft 177 kts 264°
2026-05-06 13:28 40.88652 -73.46558 4138 ft 165 kts 238°
2026-05-06 13:29 40.88242 -73.47989 4058 ft 166 kts 247°
2026-05-06 13:29 40.87907 -73.49430 3960 ft 164 kts 246°
2026-05-06 13:29 40.87530 -73.50861 3902 ft 163 kts 244°
2026-05-06 13:29 40.87117 -73.52238 3815 ft 162 kts 242°
2026-05-06 13:30 40.86655 -73.53590 3751 ft 162 kts 238°
2026-05-06 13:30 40.86136 -73.54918 3548 ft 160 kts 237°
2026-05-06 13:30 40.85569 -73.56177 3370 ft 159 kts 234°
2026-05-06 13:30 40.84958 -73.57369 3148 ft 153 kts 232°
2026-05-06 13:31 40.84331 -73.58459 2917 ft 146 kts 230°
2026-05-06 13:31 40.83690 -73.59476 2762 ft 143 kts 228°
2026-05-06 13:31 40.83005 -73.60427 2661 ft 144 kts 226°
2026-05-06 13:31 40.82275 -73.61326 2523 ft 144 kts 221°
2026-05-06 13:32 40.81467 -73.62109 2409 ft 144 kts 218°
2026-05-06 13:32 40.80634 -73.62819 2242 ft 142 kts 215°
2026-05-06 13:32 40.79796 -73.63481 2183 ft 141 kts 215°
2026-05-06 13:32 40.78937 -73.64152 2169 ft 143 kts 215°
2026-05-06 13:33 40.78084 -73.64827 2138 ft 144 kts 214°
2026-05-06 13:33 40.77224 -73.65509 2150 ft 145 kts 214°
2026-05-06 13:33 40.76361 -73.66192 2124 ft 145 kts 215°
2026-05-06 13:33 40.75495 -73.66876 2099 ft 144 kts 215°
2026-05-06 13:34 40.74638 -73.67551 2073 ft 145 kts 215°
2026-05-06 13:34 40.73766 -73.68237 2050 ft 147 kts 214°
2026-05-06 13:34 40.72882 -73.68932 1951 ft 147 kts 213°
2026-05-06 13:34 40.72024 -73.69601 1746 ft 138 kts 213°
2026-05-06 13:35 40.71239 -73.70216 1571 ft 129 kts 213°
2026-05-06 13:35 40.70458 -73.70834 1398 ft 132 kts 212°
2026-05-06 13:35 40.69668 -73.71454 1220 ft 132 kts 211°
2026-05-06 13:35 40.68877 -73.72073 1038 ft 130 kts 213°
2026-05-06 13:36 40.68134 -73.72660 857 ft 119 kts 209°
2026-05-06 13:36 40.67447 -73.73198 700 ft 114 kts 208°
2026-05-06 13:36 40.66753 -73.73740 626 ft 117 kts 209°
2026-05-06 13:36 40.66057 -73.74299 466 ft 115 kts 207°
2026-05-06 13:37 40.65374 -73.74827 314 ft 115 kts 206°
2026-05-06 13:37 40.64696 -73.75356 136 ft 113 kts 206°
2026-05-06 13:37 40.64017 -73.75887 35 ft 112 kts 208°
2026-05-06 13:37 40.63414 -73.76353 30 ft 89 kts 211°
2026-05-06 13:38 40.63009 -73.76714 27 ft 35 kts 231°
2026-05-06 13:38 40.62929 -73.76961 28 ft 26 kts 286°
2026-05-06 13:38 40.63020 -73.77173 32 ft 28 kts 301°
2026-05-06 13:38 40.63125 -73.77405 35 ft 31 kts 300°
2026-05-06 13:39 40.63243 -73.77669 34 ft 36 kts 300°
2026-05-06 13:39 40.63332 -73.77863 32 ft 22 kts 301°
2026-05-06 13:39 40.63418 -73.78055 30 ft 26 kts 300°
2026-05-06 13:39 40.63513 -73.78272 31 ft 28 kts 300°
2026-05-06 13:40 40.63611 -73.78499 35 ft 29 kts 300°
2026-05-06 13:40 40.63721 -73.78741 35 ft 32 kts 302°
2026-05-06 13:40 40.63844 -73.79000 30 ft 36 kts 302°
2026-05-06 13:40 40.63976 -73.79293 27 ft 38 kts 301°
2026-05-06 13:41 40.64156 -73.79506 30 ft 31 kts 358°
2026-05-06 13:41 40.64234 -73.79460 31 ft 7 kts 68°
2026-05-06 13:41 40.64222 -73.79423 31 ft 8 kts 134°
2026-05-06 13:41 40.64182 -73.79343 31 ft 11 kts 109°
2026-05-06 13:42 40.64179 -73.79329 31 ft 0 kts 108°